Worcester, MA

9:51 PM EDT on March 26, 2017 (GMT -0400)
Worcester Regional

Weather History for KORH - March, 2013

Change the Weather History Date:

Tuesday, March 5, 2013

  Actual Average Record
Temperature  
Mean Temperature 34 °F 31 °F  
Max Temperature 42 °F 39 °F 65 °F (1976)
Min Temperature 25 °F 23 °F -2 °F (1948)
Degree Days  
Heating Degree Days 31 34  
Month to date heating degree days 161 172  
Since 1 July heating degree days 4598 5009  
Cooling Degree Days 0 0  
Month to date cooling degree days 0 0  
Year to date cooling degree days 0 0  
Moisture  
Dew Point 23 °F    
Average Humidity 66    
Maximum Humidity 82    
Minimum Humidity 50    
Precipitation  
Precipitation 0.00 in 0.12 in 1.00 in (2001)
Month to date precipitation 0.01 0.63  
Year to date precipitation 6.89 7.35  
Snow  
Snow 0.00 in 0.50 in 10.00 in (2001)
Month to date snowfall 0.2 2.4  
Since 1 July snowfall 78.2 52.3  
Snow Depth 0.00 in    
Sea Level Pressure  
Sea Level Pressure 29.95 in    
Wind  
Wind Speed 10 mph (NNW)    
Max Wind Speed 22 mph    
Max Gust Speed 28 mph    
Visibility 10 miles    
Events      
T = Trace of Precipitation, MM = Missing Value Source: NWS Daily Summary

Daily Weather History Graph

Daily Weather History Graph

Search for Another Location

Airport or City:

Trip Planner

Search our weather history database for the weather conditions in past years. The results will help you decide how hot, cold, wet, or windy it might be!

Date:

Astronomy

Mar. 05, 2013 Rise Set
Actual Time 6:15 AM EST 5:42 PM EST
Civil Twilight 5:47 AM EST 6:10 PM EST
Nautical Twilight 5:15 AM EST 6:43 PM EST
Astronomical Twilight 4:42 AM EST 7:15 PM EST
Moon 1:30 AM EST (3/5) 11:13 AM EST (3/5)
Length of Visible Light 12h 22m
Length of Day
11h 26m
Last Quarter, 41% of the Moon is Illuminated
Mar 5
Last Quarter
Mar 11
New
Mar 19
First Quarter
Mar 27
Full
Apr 3
Last Quarter

Hourly Weather History & Observations

Time (EST) Temp. Windchill Dew Point Humidity Pressure Visibility Wind Dir Wind Speed Gust Speed Precip Events Conditions
12:54 AM 26.1 °F 13.1 °F 19.0 °F 75% 29.78 in 10.0 mi WNW 17.3 mph - N/A   Clear
2:54 AM 26.6 °F 13.1 °F 19.4 °F 74% 29.76 in 10.0 mi NW 19.6 mph 27.6 mph N/A   Clear
3:54 AM 25.0 °F 12.2 °F 19.0 °F 78% 29.82 in 10.0 mi NW 16.1 mph - N/A   Partly Cloudy
4:54 AM 25.0 °F 11.7 °F 19.0 °F 78% 29.85 in 10.0 mi NW 17.3 mph 25.3 mph N/A   Clear
5:54 AM 26.1 °F 13.1 °F 19.0 °F 75% 29.88 in 10.0 mi NW 17.3 mph 24.2 mph N/A   Clear
6:54 AM 26.1 °F 13.1 °F 19.0 °F 75% 29.90 in 10.0 mi NW 17.3 mph 25.3 mph N/A   Mostly Cloudy
7:54 AM 28.0 °F 16.5 °F 19.9 °F 72% 29.92 in 10.0 mi NW 15.0 mph - N/A   Overcast
8:54 AM 30.9 °F 22.2 °F 21.0 °F 67% 29.94 in 10.0 mi NW 10.4 mph - N/A   Overcast
9:54 AM 33.1 °F 23.9 °F 21.9 °F 64% 29.95 in 10.0 mi NNW 12.7 mph - N/A   Overcast
10:54 AM 35.1 °F 28.6 °F 23.0 °F 61% 29.96 in 10.0 mi NNW 8.1 mph - N/A   Overcast
11:39 AM 37.0 °F 29.8 °F 23.0 °F 57% 29.92 in 10.0 mi NNW 10.4 mph - N/A   Overcast
11:54 AM 37.0 °F 31.6 °F 24.1 °F 59% 29.96 in 10.0 mi NNW 6.9 mph - N/A   Overcast
12:54 PM 39.9 °F 35.1 °F 24.1 °F 53% 29.95 in 10.0 mi North 6.9 mph - N/A   Partly Cloudy
1:54 PM 39.9 °F 36.7 °F 25.0 °F 55% 29.96 in 10.0 mi North 4.6 mph - N/A   Mostly Cloudy
2:54 PM 41.0 °F 35.2 °F 24.1 °F 51% 29.98 in 10.0 mi NNE 9.2 mph - N/A   Mostly Cloudy
3:54 PM 39.9 °F 35.1 °F 24.1 °F 53% 30.00 in 10.0 mi NE 6.9 mph - N/A   Overcast
4:54 PM 39.9 °F 35.1 °F 23.0 °F 51% 30.01 in 10.0 mi NE 6.9 mph - N/A   Overcast
5:54 PM 39.0 °F 36.8 °F 24.1 °F 55% 30.02 in 10.0 mi NE 3.5 mph - N/A   Overcast
6:54 PM 37.9 °F 35.5 °F 24.1 °F 57% 30.04 in 10.0 mi NE 3.5 mph - N/A   Overcast
7:54 PM 37.0 °F 32.4 °F 25.0 °F 62% 30.04 in 10.0 mi ENE 5.8 mph - N/A   Overcast
8:54 PM 36.0 °F - 27.0 °F 70% 30.05 in 10.0 mi Calm Calm - N/A   Overcast
9:54 PM 35.1 °F - 28.9 °F 78% 30.05 in 10.0 mi Calm Calm - N/A   Overcast
10:54 PM 34.0 °F 28.8 °F 28.9 °F 82% 30.07 in 10.0 mi West 5.8 mph - N/A   Overcast
11:54 PM 35.1 °F 31.0 °F 28.0 °F 76% 30.04 in 10.0 mi North 4.6 mph - N/A   Overcast